Location: Austin
(30.3000°N, 97.7500°W)
Time: 08:59:29
(UTC-06:00)

CZ-4B R/B - Pass Details

Date: 12 February 2024
Orbit: 809 x 880 km, 99.0° (Epoch: 28 February)

Event Time Altitude Azimuth Distance (km) Brightness Sun altitude
Exits shadow 19:51:22 43° 83° (E) 1,125 3.3 -20.9°
Maximum altitude 19:51:42 44° 72° (ENE) 1,117 3.4 -21.0°
Drops below altitude 10° 19:56:43 10° 2° (N) 2,416 5.5 -22.1°
Sets 19:59:10 0° 356° (N) 3,360 6.3 -22.6°
